Regional Weather Roundup
Issued by NWS Austin/San Antonio, TX

Home | Current Version | Previous Version | Text Only | Print | Product List | Glossary On
Versions: 1 2 3 4 5 6 7 8 9 10 11 12 13 14 15 16 17 18 19 20 21 22 23 24 25 26 27 28 29 30 31 32 33 34 35 36 37 38 39 40 41 42 43 44 45 46 47 48 49 50
000
ASUS44 KEWX 191901
RWREWX
SOUTH TEXAS REGIONAL WEATHER ROUNDUP
NATIONAL WEATHER SERVICE AUSTIN/SAN ANTONIO TX
100 PM CST SUN NOV 19 2017

NOTE: "FAIR" INDICATED FEW OR NO CLOUDS BELOW 12,000 FEET WITH NO
SIGNIFICANT WEATHER AND/OR OBSTRUCTIONS TO VISIBILITY.

* - THESE STATIONS ARE NOT NWS OR FAA STATIONS...AND ARE NOT SUBJECT
    TO NWS AND FAA QUALITY CONTROL.

TXZ171-172-183>190-192000-
TEXAS HILL COUNTRY AND EDWARDS PLATEAU

CITY           SKY/WX    TMP DP  RH WIND       PRES   REMARKS
JUNCTION       MOSUNNY   58  27  30 VRB3      30.32F
*LLANO         MOSUNNY   61  28  29 N7        30.37F
BURNET         MOSUNNY   60  27  28 MISG      30.34F
*HORSESHOE BAY MOSUNNY   61  26  25 NE7       30.32F
*KERRVILLE     SUNNY     59  25  27 E8        30.32F
*FREDERICKSBRG MOSUNNY   57  23  27 SE3       30.32F
*ROCKSPRINGS   NOT AVBL
*BOERNE STAGE  MOSUNNY   59  23  25 NE8       30.32F
*CASTROVILLE   MOSUNNY   65  24  21 E7        30.33F
HONDO          SUNNY     68  24  19 E6        30.32F
*UVALDE        SUNNY     63  25  24 SE7       30.33F
DEL RIO        MOSUNNY   59  26  28 CALM      30.32F
LAUGHLIN AFB   PTSUNNY   60  24  25 E3        30.32F
CARRIZO SPRGS  SUNNY     63  30  29 S3        30.32F
*EAGLE PASS    CLEAR     63  25  23 VRB6      30.32F
$$

TXZ173-191>194-202-209-217>225-228-192000-
CENTRAL AND SOUTH CENTRAL TEXAS

CITY           SKY/WX    TMP DP  RH WIND       PRES   REMARKS
GEORGETOWN     PTSUNNY   60  27  28 N10       30.34F
AUSTIN/BERGSTM PTSUNNY   62  30  29 NE7       30.31F
AUSTIN/MABRY   PTSUNNY   63  32  31 N8        30.33F
*AUSTIN/EXEC   PTSUNNY   61  27  27 N8        30.33F
*LAGO VISTA    PTSUNNY   61  26  26 E6        30.31F
SAN MARCOS     MOSUNNY   63  29  27 NE14      30.32F
NEW BRAUNFELS  MOSUNNY   65  27  23 NE14      30.30F
RANDOLPH AFB   MOSUNNY   63  26  24 NE7       30.30F
PT SAN ANTONIO MOSUNNY   64  26  24 NE8       30.30F
SAN ANTONIO    PTSUNNY   64  25  22 N6        30.32F
STINSON FIELD  SUNNY     65  26  23 VRB3      30.30F
*LA GRANGE     SUNNY     64  32  31 N9        30.29F
*GIDDINGS      SUNNY     61  30  31 N8        30.31F
*GONZALES      SUNNY     65  32  29 N13       30.30F
$$

TXZ163>164-176>182-195>201-210>213-226-227-235-192000-
SOUTHEAST TEXAS

CITY           SKY/WX    TMP DP  RH WIND       PRES   REMARKS
COLLEGE STN    SUNNY     64  30  27 N13G20    30.29F
*BRYAN         SUNNY     62  29  28 NE9G16    30.30F
*CALDWELL      SUNNY     62  29  28 NE10      30.31F
*CROCKETT        N/A    N/A N/A N/A MISG        N/A
*BRENHAM       SUNNY     64  30  28 NE9       30.31F
HUNTSVILLE     SUNNY     62  31  31 VRB3G18   30.28F
CONROE         SUNNY     64  32  30 N8        30.27F
HOUSTON BUSH   PTSUNNY   65  31  28 N14       30.27F
HOUSTON HOBBY  MOSUNNY   64  31  28 N13       30.26F
*HOUSTON SW AP SUNNY     63  33  32 NE7       30.28F
PEARLAND       SUNNY     66  29  24 N12       30.27F
HOUSTON HOOKS  SUNNY     64  34  32 NW9       30.28F
ELLINGTON FLD  MOSUNNY   63  34  34 N13       30.28F
SUGAR LAND     SUNNY     66  30  26 N10G21    30.26F
*HOUSTON EXEC  SUNNY     64  30  27 NE14G20   30.29F
*CLEVELAND MUN SUNNY     64  24  21 N8        30.28F
*WHARTON       SUNNY     64  28  25 N9        30.29F
*COLUMBUS      FAIR      63  25  23 N7        30.30F
*EAGLE LAKE    CLEAR     65  32  28 N12G18    30.28F
$$

TXZ214>216-236>238-192000-
THE UPPER TEXAS COAST

CITY           SKY/WX    TMP DP  RH WIND       PRES   REMARKS
*ORANGE        SUNNY     62  32  31 NE9       30.25F
PORT ARTHUR    SUNNY     64  32  30 N13G23    30.23F
GALVESTON      SUNNY     64  36  35 N14       30.27F
ANGLETON       SUNNY     65  31  28 N12G18    30.27F
*BAY CITY      SUNNY     65  31  27 NE9G18    30.28F
PALACIOS       SUNNY     65  31  28 NE10      30.28F
$$

TXZ229>234-239>247-192000-
TEXAS COASTAL BEND AND RIO GRANDE PLAINS

CITY           SKY/WX    TMP DP  RH WIND       PRES   REMARKS
VICTORIA       SUNNY     65  30  27 VRB3G18   30.30F
*BEEVILLE      SUNNY     65  31  27 NE12      30.31F
ROCKPORT       SUNNY     65  30  27 NE15      30.30F
*PORT ARANSAS  NOT AVBL
*PORT LAVACA   NOT AVBL
*INGLESIDE     NOT AVBL
CORPUS CHRISTI MOSUNNY   66  33  29 NE10      30.30F
CORPUS NAS     SUNNY     66  37  34 NE15      30.30F
*ROBSTOWN      SUNNY     64  32  30 NE12G18   30.32F
ALICE          SUNNY     67  26  21 NE10G20   30.30F
KINGSVILLE NAS SUNNY     67  32  27 NE12      30.30F
COTULLA        SUNNY     64  22  20 VRB6      30.32F
*FAITH RANCH   SUNNY     63  27  25 VRB7      30.32F
LAREDO         SUNNY     65  29  25 E9        30.32F
$$

TXZ248>255-192000-
DEEP SOUTH TEXAS

CITY           SKY/WX    TMP DP  RH WIND       PRES   REMARKS
BROWNSVILLE    PTSUNNY   70  50  49 N14G20    30.26F
PORT ISABEL    MOSUNNY   69  50  50 N22G28    30.25F
*SOUTH PADRE   NOT AVBL
HARLINGEN      PTSUNNY   67  48  50 N15G29    30.27F
*HEBBRONVILLE  SUNNY     62  26  26 E6        30.33F
MCALLEN        SUNNY     67  39  35 N8        30.30F
*WESLACO       SUNNY     65  41  42 NE8G16    30.28F
FALFURRIAS     SUNNY     66  26  22 NE12G20   30.30F
EDINBURG       SUNNY     67  34  29 N7G18     30.30F
*ZAPATA        SUNNY     66  27  22 NE5       30.30F
$$

TXZ213>215-236>238-242>244-246-247-251-254-255-192000-
CMAN STATIONS

STATION/POSITION TIME  TEMP    WIND        PRES    WAVE
                       AIR SEA DIR/SP/G            HT/PER
                 (UTC) (F)     (DEG/KT/KT) (MB)    (FT/S)
SABINE PASS      1830   58 69   10/ 11/ 21 1025.9
SEA RIM ST PARK  1800   59      10/ 15/ 18 1025.3
NORTH JETTY/GLS  1830      67  360/ 13/ 16 1024.4
EAGLE POINT      1830   58 65   50/ 12/ 15 1025.4
MORGANS POINT    1830   60 70  360/ 13/ 17 1024.9
PORT O`CONNOR    1830   59 62   30/ 11/ 15 1025.7
PORT ARANSAS     1800   59 71   10/ 17/ 18 1026.9
MALAQUITE BEACH  1830   60 70   10/ 19/ 25 1026.1
BAFFIN BAY       1830   60 67   20/ 15/ 21 1026.8
PORT ISABEL      1830   66 73  360/ 15/ 21 1024.1
$$




USA.gov is the U.S. government's official web portal to all federal, state and local government web resources and services.